Weather reports worldwide

Advertisment
Exeter Airport No. 2, United Kingdom (3844): temperature & dewpoint: 15.02.2017 14:00:00 - 21.02.2017 14:00:00 (GMT)Exeter Airport No. 2, United Kingdom (3844): wind speed: 15.02.2017 14:00:00 - 21.02.2017 14:00:00 (GMT)Exeter Airport No. 2, United Kingdom (3844): wind direction: 15.02.2017 14:00:00 - 21.02.2017 14:00:00 (GMT)Exeter Airport No. 2, United Kingdom (3844): reduced air pressure: 15.02.2017 14:00:00 - 21.02.2017 14:00:00 (GMT)Exeter Airport No. 2, United Kingdom (3844): visibility: 15.02.2017 14:00:00 - 21.02.2017 14:00:00 (GMT)Exeter Airport No. 2, United Kingdom (3844): sunshine duration: 15.02.2017 14:00:00 - 21.02.2017 14:00:00 (GMT)Exeter Airport No. 2, United Kingdom (3844): precipitation: 15.02.2017 14:00:00 - 21.02.2017 14:00:00 (GMT)
Date & Time tt [°C] td [°C] ff [km/h] ff [kn] dd ppp [hPa] vv [km] sd [min] rr [mm]
21.02.2017 14:00:00 - - - - - - - - 0,0
21.02.2017 13:00:00 12,8 9,7 22 12 W 1019,4 50 0 0,0
21.02.2017 12:00:00 12,4 9,8 22 12 W 1020,0 50 0 0,0
21.02.2017 11:00:00 12,6 9,6 22 12 W 1020,0 50 0 0,0
21.02.2017 10:00:00 11,5 9,7 18 10 W 1020,3 50 0 0,0
21.02.2017 09:00:00 11,4 9,6 21 11 W 1020,1 50 0 0,0
21.02.2017 08:00:00 11,2 9,5 24 13 W 1020,0 45 0 0,0
21.02.2017 07:00:00 11,5 10,1 24 13 W 1019,7 30 0 0,0
21.02.2017 06:00:00 11,3 10,3 18 10 W 1019,5 30 0 0,0
21.02.2017 05:00:00 11,2 10,2 15 8 W 1019,7 40 0 0,0
21.02.2017 04:00:00 11,3 9,8 21 11 W 1020,0 45 0 0,2
21.02.2017 03:00:00 10,9 9,5 9 5 W 1020,3 25 0 0,0
21.02.2017 02:00:00 10,7 9,3 9 5 W 1020,9 40 0 0,0
21.02.2017 01:00:00 10,5 9,1 18 10 W 1021,2 35 0 0,0
21.02.2017 00:00:00 10,4 9,1 21 11 W 1021,5 35 - 0,0
20.02.2017 23:00:00 10,4 9,2 16 9 W 1021,6 35 0 0,0
20.02.2017 22:00:00 10,3 9,5 16 9 W 1021,6 30 0 0,0
20.02.2017 21:00:00 10,4 9,5 16 9 WNW 1021,8 35 0 0,0
20.02.2017 20:00:00 10,5 9,6 9 5 WNW 1021,7 30 0 0,0
20.02.2017 19:00:00 10,8 9,8 16 9 W 1021,7 40 0 0,0
20.02.2017 18:00:00 11,0 9,8 15 8 W 1021,6 40 0 0,0
20.02.2017 17:00:00 11,2 9,7 18 10 W 1021,4 40 0 0,0
20.02.2017 16:00:00 12,6 10,6 16 9 W 1021,2 22 0 0,0
20.02.2017 15:00:00 13,6 11,3 21 11 WNW 1021,4 50 12 0,0
20.02.2017 14:00:00 13,6 12,2 13 7 WNW 1021,4 35 0 0,0
20.02.2017 13:00:00 13,3 11,5 13 7 W 1021,8 7 0 0,0
20.02.2017 12:00:00 12,8 11,2 22 12 W 1022,3 15 0 0,0
20.02.2017 11:00:00 11,7 10,7 16 9 WNW 1022,5 21 0 0,0
20.02.2017 10:00:00 11,3 10,9 22 12 WNW 1022,4 30 0 0,0
20.02.2017 09:00:00 10,7 10,6 16 9 WNW 1022,2 15 0 0,0
20.02.2017 08:00:00 10,5 10,5 5 3 W 1021,9 3,8 0 0,0
20.02.2017 07:00:00 10,7 10,5 11 6 WNW 1021,5 5 0 0,0
20.02.2017 06:00:00 10,7 10,3 9 5 WNW 1021,4 30 0 0,0
20.02.2017 05:00:00 10,9 10,7 13 7 WNW 1021,5 24 0 0,0
20.02.2017 04:00:00 10,7 10,7 9 5 W 1021,5 11 0 0,2
20.02.2017 03:00:00 10,5 10,5 4 2 WSW 1021,8 1,1 0 0,0
20.02.2017 02:00:00 10,5 10,5 5 3 NNW 1022,4 7 0 0,0
20.02.2017 01:00:00 10,2 10,2 5 3 WNW 1022,7 4,7 0 0,0
20.02.2017 00:00:00 10,1 10,0 5 3 N 1023,4 2,3 - 0,0
19.02.2017 23:00:00 9,7 9,5 8 4 WNW 1023,2 3,7 0 0,0
19.02.2017 22:00:00 9,8 9,0 8 4 W 1023,2 30 0 0,0
19.02.2017 21:00:00 10,3 9,5 11 6 WNW 1023,1 2,1 0 0,0
19.02.2017 20:00:00 10,4 9,5 9 5 WNW 1022,9 4,1 0 0,0
19.02.2017 19:00:00 10,8 9,6 5 3 WSW 1022,7 11 0 0,0
19.02.2017 18:00:00 11,3 9,8 8 4 SSW 1022,7 13 0 0,0
19.02.2017 17:00:00 12,1 9,7 8 4 WNW 1022,5 15 0 0,0
19.02.2017 16:00:00 12,3 9,7 5 3 NW 1022,3 4,6 0 0,0
19.02.2017 15:00:00 12,4 8,9 11 6 WNW 1022,7 50 0 0,0
19.02.2017 14:00:00 12,4 8,8 9 5 W 1023,0 45 0 0,0
19.02.2017 13:00:00 11,6 8,3 8 4 NW 1023,7 3,3 0 0,0
19.02.2017 12:00:00 11,6 7,5 16 9 W 1024,2 40 6 0,0
19.02.2017 11:00:00 11,2 7,7 15 8 W 1024,4 40 0 0,0
19.02.2017 10:00:00 9,9 7,5 11 6 W 1024,7 30 0 0,0
19.02.2017 09:00:00 8,9 7,7 5 3 W 1024,5 30 0 0,0
19.02.2017 08:00:00 8,0 7,4 9 5 WSW 1024,3 24 0 0,0
19.02.2017 07:00:00 6,9 6,7 4 2 ESE 1023,9 7 0 0,0
19.02.2017 06:00:00 5,8 5,8 2 1 NNW 1024,0 3,5 0 0,0
19.02.2017 05:00:00 5,4 5,4 4 2 E 1023,6 2,3 0 0,0
19.02.2017 04:00:00 4,9 4,9 5 3 N 1023,9 2,6 0 0,0
19.02.2017 03:00:00 4,8 4,8 5 3 WNW 1023,6 2,0 0 0,0
19.02.2017 02:00:00 3,2 3,2 4 2 E 1024,0 0,6 0 0,0
19.02.2017 01:00:00 2,1 2,1 4 2 WNW 1024,4 - 0 0,2
19.02.2017 00:00:00 3,1 3,1 5 3 ESE 1024,4 0,1 - 0,0
18.02.2017 23:00:00 5,0 5,0 4 2 NW 1024,9 - 0 0,0
18.02.2017 22:00:00 4,4 4,4 2 1 ESE 1024,6 - 0 0,0
18.02.2017 21:00:00 6,6 6,5 9 5 S 1023,8 5 0 0,0
18.02.2017 20:00:00 4,5 3,6 2 1 N 1024,0 2,9 0 0,0
18.02.2017 19:00:00 6,0 5,6 8 4 SE 1023,8 2,1 0 0,0
18.02.2017 18:00:00 7,6 6,9 11 6 SSE 1023,5 5 18 0,0
18.02.2017 17:00:00 9,1 7,4 13 7 SE 1023,3 9 60 0,0
18.02.2017 16:00:00 10,3 7,9 9 5 SSE 1023,1 12 60 0,0
18.02.2017 15:00:00 10,9 7,8 16 9 SSE 1023,0 15 60 0,0
18.02.2017 14:00:00 11,7 8,7 13 7 SE 1023,2 18 60 0,0
18.02.2017 13:00:00 11,4 8,3 11 6 SE 1023,7 17 54 0,0
18.02.2017 12:00:00 10,3 8,0 11 6 SSE 1024,6 15 42 0,0
18.02.2017 11:00:00 9,5 8,3 11 6 SE 1024,7 11 24 0,0
18.02.2017 10:00:00 8,8 8,3 13 7 SE 1024,5 7 0 0,0
18.02.2017 09:00:00 8,4 8,2 8 4 SE 1024,1 5 0 0,0
18.02.2017 08:00:00 8,0 7,9 11 6 SE 1023,8 3,2 0 0,0
18.02.2017 07:00:00 7,6 7,6 9 5 E 1023,5 2,6 0 0,0
18.02.2017 06:00:00 7,4 7,4 5 3 SE 1023,7 2,3 0 0,0
18.02.2017 05:00:00 7,0 7,0 9 5 ESE 1024,0 1,9 0 0,0
18.02.2017 04:00:00 6,8 6,8 8 4 SE 1024,3 2,1 0 0,0
18.02.2017 03:00:00 6,8 6,8 5 3 SE 1024,7 4,5 0 0,0
18.02.2017 02:00:00 6,4 6,4 9 5 SE 1025,2 3,3 0 0,0
18.02.2017 01:00:00 6,5 6,5 9 5 SSE 1025,6 2,4 0 0,0
18.02.2017 00:00:00 6,4 6,4 9 5 SSE 1025,9 7 - 0,0
17.02.2017 23:00:00 6,6 6,6 9 5 SSE 1026,1 0,6 0 0,0
17.02.2017 22:00:00 6,7 6,7 9 5 S 1026,4 0,4 0 0,0
17.02.2017 21:00:00 7,5 7,2 9 5 SSE 1026,3 4,0 0 0,0
17.02.2017 20:00:00 8,3 7,8 9 5 S 1026,3 8 0 0,0
17.02.2017 19:00:00 8,5 8,1 11 6 SSE 1026,6 7 0 0,0
17.02.2017 18:00:00 8,5 7,9 11 6 SSE 1026,5 8 0 0,0
17.02.2017 17:00:00 8,7 8,2 11 6 SSE 1026,2 6 0 0,0
17.02.2017 16:00:00 8,9 8,3 13 7 SSE 1026,7 4,9 0 0,0
17.02.2017 15:00:00 9,3 8,4 11 6 S 1027,0 10 0 0,0
17.02.2017 14:00:00 9,4 8,4 13 7 SSE 1027,3 11 0 0,0
17.02.2017 13:00:00 9,5 7,8 11 6 SE 1027,8 18 0 0,0
17.02.2017 12:00:00 10,0 8,1 9 5 S 1028,3 22 0 0,0
17.02.2017 11:00:00 9,1 8,5 0 0 N 1028,5 13 24 0,0
17.02.2017 10:00:00 7,3 6,8 2 1 ENE 1028,4 7 60 0,0
17.02.2017 09:00:00 4,0 4,0 2 1 NNW 1028,4 4,5 36 0,0
17.02.2017 08:00:00 1,4 1,3 0 0 N 1028,5 1,9 0 0,0
17.02.2017 07:00:00 2,2 2,2 4 2 ENE 1028,2 3,2 0 0,0
17.02.2017 06:00:00 2,3 2,3 0 0 N 1028,2 4,2 0 0,0
17.02.2017 05:00:00 2,1 2,1 2 1 NE 1028,3 1,1 0 0,0
17.02.2017 04:00:00 2,0 1,9 4 2 E 1028,5 2,5 0 0,0
17.02.2017 03:00:00 2,9 2,7 0 0 N 1028,7 3,2 0 0,0
17.02.2017 02:00:00 2,8 2,5 2 1 SW 1029,0 3,7 0 0,0
17.02.2017 01:00:00 3,9 3,8 5 3 NE 1029,3 4,0 0 0,0
17.02.2017 00:00:00 4,3 4,3 2 1 SSE 1029,4 7 - 0,0
16.02.2017 23:00:00 4,3 4,1 0 0 N 1029,9 8 0 0,0
16.02.2017 22:00:00 5,3 4,9 2 1 SE 1029,8 15 0 0,0
16.02.2017 21:00:00 5,0 3,8 2 1 ESE 1029,8 13 0 0,0
16.02.2017 20:00:00 6,8 5,4 4 2 SSW 1029,7 24 0 0,0
16.02.2017 19:00:00 8,6 5,9 9 5 SSW 1029,6 22 0 0,0
16.02.2017 18:00:00 9,1 5,7 9 5 SW 1029,3 21 12 0,0
16.02.2017 17:00:00 10,9 5,9 16 9 WSW 1029,0 10 30 0,0
16.02.2017 16:00:00 12,0 5,4 21 11 WSW 1028,7 9 24 0,0
16.02.2017 15:00:00 11,1 6,9 8 4 S 1029,1 35 12 0,0
16.02.2017 14:00:00 11,7 5,7 16 9 WSW 1029,4 50 30 0,0
16.02.2017 13:00:00 11,5 7,0 11 6 SW 1029,9 27 42 0,0
16.02.2017 12:00:00 10,8 7,4 13 7 SW 1030,7 45 48 0,0
16.02.2017 11:00:00 9,7 7,7 8 4 SSW 1031,1 4,2 60 0,0
16.02.2017 10:00:00 6,1 5,8 2 1 WSW 1031,4 19 60 0,2
16.02.2017 09:00:00 1,4 1,4 2 1 S 1031,3 11 54 0,0
16.02.2017 08:00:00 -1,0 -1,0 0 0 N 1030,9 0,2 0 0,0
16.02.2017 07:00:00 0,5 0,5 2 1 E 1030,5 0,8 0 0,0
16.02.2017 06:00:00 1,3 1,3 4 2 ENE 1030,4 0,4 0 0,0
16.02.2017 05:00:00 2,8 2,8 4 2 E 1030,6 8 0 0,0
16.02.2017 04:00:00 4,3 3,5 2 1 WNW 1030,3 17 0 0,0
16.02.2017 03:00:00 6,3 5,1 9 5 WSW 1030,4 21 0 0,0
16.02.2017 02:00:00 7,0 6,3 16 9 WSW 1030,3 22 0 0,0
16.02.2017 01:00:00 5,3 4,1 2 1 NNW 1030,2 17 0 0,0
16.02.2017 00:00:00 5,8 4,2 8 4 WSW 1030,1 18 - 0,0
15.02.2017 23:00:00 7,5 6,2 15 8 SW 1029,7 22 0 0,0
15.02.2017 22:00:00 8,1 6,6 15 8 SW 1029,7 24 0 0,0
15.02.2017 21:00:00 8,3 6,7 11 6 SW 1029,3 24 0 0,0
15.02.2017 20:00:00 7,4 6,3 11 6 SSW 1029,1 23 0 0,0
15.02.2017 19:00:00 8,5 6,7 13 7 SSW 1028,7 26 0 0,0
15.02.2017 18:00:00 8,2 6,6 13 7 SW 1028,4 21 6 0,0
15.02.2017 17:00:00 10,2 7,9 15 8 SW 1027,7 30 6 0,0
15.02.2017 16:00:00 9,8 7,8 15 8 WSW 1027,3 17 0 1,0
15.02.2017 15:00:00 12,0 8,0 11 6 SSW 1026,5 40 24 0,0
15.02.2017 14:00:00 11,8 8,8 13 7 SW 1026,3 3,4 18 0,0

tt = temperature
td = dewpoint
ff = wind speed
dd = wind direction
ppp = reduced air pressure
vv = visibility
sd = sunshine duration
rr = precipitation

Next stations